Regional Weather Roundup
Issued by NWS

Home | Current Version | Previous Version | Text Only | Print | Product List | Glossary Off
Versions: 1 2 3 4 5 6 7 8 9 10 11 12 13 14 15 16 17 18 19 20 21 22 23 24 25 26 27 28 29 30 31 32 33 34 35 36 37 38 39 40 41 42 43 44 45 46 47 48 49 50

000
ASUS43 KLSX 191007
RWRMO

WEATHER SUMMARY FOR MISSOURI
NATIONAL WEATHER SERVICE SPRINGFIELD MO
400 AM CST THU JAN 19 2017

NOTE: "FAIR" INDICATES FEW OR NO CLOUDS BELOW 12,000 FEET WITH NO
       SIGNIFICANT WEATHER AND/OR OBSTRUCTIONS TO VISIBILITY.
       CURRENT SKY AND/OR WEATHER CONDITIONS ARE NOT AVAILABLE FOR
       CHILLICOTHE AND FARMINGTON.

MOZ001>031-035>038-043-044-053-054-191100-
...NORTHERN AND WESTERN MISSOURI...

CITY           SKY/WX    TMP DP  RH WIND       PRES   REMARKS
KANSAS CTY INT FOG       42  39  89 SE7       29.87F VSB 1
KANSAS C DTWN  CLOUDY    43  41  93 E3        29.87F FOG
LEE`S SUMMIT   CLOUDY    43  42  97 SE3       29.88F FOG
ST JOSEPH      CLOUDY    41  39  93 S6        29.86F
CHILLICOTHE      N/A     39  37  92 CALM      29.91F
KIRKSVILLE     CLOUDY    36  34  92 SE6       29.92F

$$
MOZ066>068-077>081-088>096-101>105-191100-
...SOUTHWEST MISSOURI...

CITY           SKY/WX    TMP DP  RH WIND       PRES   REMARKS
SPRINGFIELD    CLOUDY    44  42  93 SE10      29.88F
JOPLIN         CLOUDY    47  46  97 S5        29.89F
BRANSON        FOG       41  41 100 CALM      29.90S VSB 1/4

$$
MOZ032>034-039>042-045>050-055>058-069>072-191100-
...CENTRAL MISSOURI...

CITY           SKY/WX    TMP DP  RH WIND       PRES   REMARKS
COLUMBIA       LGT RAIN  44  43  96 SE6       29.91F FOG
JEFFERSON CITY CLOUDY    44  42  93 SE7       29.93F
ROLLA          CLOUDY    42  42 100 E7        29.90F
SEDALIA        CLOUDY    46  44  93 CALM      29.91F
WHITEMAN AFB   CLOUDY    46  46 100 S6        29.88F
WARRENSBURG    CLOUDY    43  39  87 E3        29.89F
OSAGE BEACH    CLOUDY    43  42  97 E3        29.91F

$$
MOZ051-052-059>065-191100-
...EAST CENTRAL MISSOURI...

CITY           SKY/WX    TMP DP  RH WIND       PRES   REMARKS
ST LOUIS INTL  CLOUDY    44  39  82 E6        29.97F
SPIRIT OF STL  LGT RAIN  43  40  89 E6        29.96F
ST CHARLES     CLOUDY    42  40  92 E5        29.98F

$$
MOZ072>076-082>087-097>100-106>115-191100-
...SOUTH CENTRAL AND SOUTHEAST MISSOURI...

CITY           SKY/WX    TMP DP  RH WIND       PRES   REMARKS
CAPE GIRARDEAU CLOUDY    43  42  97 E6        29.98F FOG
FARMINGTON     CLOUDY    41  40  96 SE3       29.96F FOG
POPLAR BLUFF   CLOUDY    44  43  96 NE8       29.95F FOG
WEST PLAINS    FOG       42  41  96 NE3       29.92F VSB 3/4

$$



USA.gov is the U.S. government's official web portal to all federal, state and local government web resources and services.